Location: Dresden
(51.0483°N, 13.7137°E)
Time: 02:42:12
(UTC+01:00)

ISS - Pass Details

Date: 10 January 2018
Orbit: 402 x 407 km, 51.6° (Epoch: 23 January)

Event Time Altitude Azimuth Distance (km) Brightness Sun altitude
Exits shadow 06:30:49 27° 264° (W) 822 -2.8 -14.2°
Maximum altitude 06:32:15 47° 204° (SSW) 546 -3.3 -13.9°
Drops below altitude 10° 06:35:25 10° 129° (SE) 1,466 0.2 -13.5°
Sets 06:37:32 0° 124° (SE) 2,325 1.7 -13.1°
